Regional Weather Roundup
Issued by NWS Upton, NY

Current Version | Previous Version | Text Only | Print | Product List | Glossary On
Versions: 1 2 3 4 5 6 7 8 9 10 11 12 13 14 15 16 17 18 19 20 21 22 23 24 25 26 27 28 29 30 31 32 33 34 35 36 37 38 39 40 41 42 43 44 45 46 47 48 49 50
000
ASUS41 KOKX 310605
RWROKX

REGIONAL WEATHER ROUNDUP
NATIONAL WEATHER SERVICE NEW YORK NY
200 AM EDT THU JUL 31 2014

NOTE: "FAIR" INDICATES FEW OR NO CLOUDS BELOW 12,000 FEET WITH NO
SIGNIFICANT WEATHER AND/OR OBSTRUCTIONS TO VISIBILITY.

NYZ071-072-176-178-NJZ106-104-310700-
NEW YORK CITY METRO AREA


CITY           SKY/WX    TMP DP  RH WIND       PRES   REMARKS
CENTRAL PARK   CLEAR     70  54  56 W3        30.08S
LAGUARDIA APRT PTCLDY    72  57  59 S5        30.04S
KENNEDY INTL   PTCLDY    68  62  81 SW7       30.06S
NEWARK/LIBERTY PTCLDY    68  56  65 SW6       30.05S
BRNX BOT. GARD   N/A     68  54  60 CALM      30.06F
TETERBORO      CLEAR     69  58  67 CALM      30.04S
$$

NYZ177-179-078>081-310700-
LONG ISLAND NEW YORK

CITY           SKY/WX    TMP DP  RH WIND       PRES   REMARKS
FARMINGDALE    CLEAR     65  60  84 CALM      30.06S
ISLIP          CLEAR     70  62  76 S5        30.04S
SHIRLEY        CLEAR     63  60  90 S3        30.07R
WESTHAMPTON    CLEAR     55  51  86 CALM      30.08S
MONTAUK POINT    N/A     68  61  78 SW3       30.08R
$$

NYZ052-065-067-310700-
HUDSON VALLEY

CITY           SKY/WX    TMP DP  RH WIND       PRES   REMARKS
WHITE PLAINS   CLEAR     62  59  90 CALM      30.05S
NEWBURGH       CLEAR     63  55  77 CALM      30.06R
MONTGOMERY     CLEAR     55  53  93 CALM      30.05R
POUGHKEEPSIE   CLEAR     59  56  89 CALM      30.04R
ALBANY         MOCLDY    66  53  63 CALM      30.03S
$$

NJZ001-105-106-008-010-013-015-019>022-104-310700-
NEW JERSEY

CITY           SKY/WX    TMP DP  RH WIND       PRES   REMARKS
NEWARK/LIBERTY PTCLDY    68  56  65 SW6       30.05S
TETERBORO      CLEAR     69  58  67 CALM      30.04S
CALDWELL       CLEAR     61  55  81 CALM      30.06S
MORRISTOWN     CLEAR     57  54  88 CALM      30.06S
SOMERVILLE     CLEAR     57  55  93 CALM      30.05R
LINDEN         FAIR      69  56  63 CALM      30.07S
SUSSEX         CLEAR     57  54  89 CALM      30.06R
ANDOVER          N/A     57  56  96 SW5       30.07R
TRENTON        CLEAR     62  55  77 CALM      30.06S
MILLVILLE      CLEAR     57  56  96 CALM      30.08S
ATLANTIC CITY  CLEAR     64  58  80 SW5       30.08R
WRIGHTSTOWN    CLEAR     60  56  87 S1        30.06R
TOMS RIVER     CLEAR     57  54  88 CALM      30.08S
BELMAR         CLEAR     64  54  68 SW6       30.07S
$$

PAZ047>061-062-071-310700-
EASTERN PENNSYLVANIA

CITY           SKY/WX    TMP DP  RH WIND       PRES   REMARKS
PHILADELPHIA   CLEAR     67  57  70 CALM      30.07S
ALLENTOWN      MOCLDY    64  56  75 W3        30.06S
SCRANTON       MOCLDY    60  56  86 CALM      30.07S
$$

CTZ002-004>006-009-010-012-RIZ004-006-007-MAZ004-011-015-310700-
SOUTHERN NEW ENGLAND
 IN CT

CITY           SKY/WX    TMP DP  RH WIND       PRES   REMARKS
BRADLEY INTL   CLEAR     61  54  77 CALM      30.04S
HARTFORD       CLEAR     63  56  78 CALM      30.05S
DANBURY        CLEAR     57  54  89 CALM      30.07S
WTRBRY/OXFORD  CLEAR     57  54  88 CALM      30.08S
BRIDGEPORT     CLEAR     68  62  81 CALM      30.05S
MERIDEN        CLEAR     58  55  90 CALM      30.06S
NEW HAVEN      CLEAR     70  62  76 CALM      30.06R
CHESTER        FAIR      64  61  88 S5        30.08R
GROTON         CLEAR     60  59  96 CALM      30.06S
WILLIMANTIC    CLEAR     57  55  93 CALM      30.07S

 IN RI

CITY           SKY/WX    TMP DP  RH WIND       PRES   REMARKS
PROVIDENCE     CLEAR     62  56  80 W5        30.07R
BLOCK ISLAND   CLEAR     64  57  77 SW7       30.07S
WESTERLY       CLEAR     60  57  89 CALM      30.07S

 IN MA

CITY           SKY/WX    TMP DP  RH WIND       PRES   REMARKS
BOSTON         CLEAR     66  55  67 SW8       30.05R
WORCESTER      CLEAR     58  53  84 W7        30.07S
WESTFIELD      CLEAR     58  55  90 CALM      30.05S
PROVINCETOWN   CLEAR     64  57  77 SW7       30.06F
NANTUCKET      CLEAR     65  62  90 SW6       30.07F
$$

ANZ330-335-338-340-345-350-353-355-310700-
COASTAL MARINE OBSERVATIONS


STATION/POSITION TIME  SKY/WX   TEMP    WIND        PRES    VSBY  WAVE
                                AIR SEA DIR/SP/G                  HT/PER
                 (UTC)          (F)     (DEG/KT/KT) (MB)    (MI)  (FT/S)
NY HARB ENTRANCE NOT AVBL
4S FIRE IS       NOT AVBL
23SW MTP         0600            69 70              1017.8          3/ 8
HUDSON CANYON    0600            72 74  210/  6/  8 1018.5          3/ 7
EXECUTION ROCKS  0600            70 70  190/  6/  6   N/A
WESTERN LI SOUND 0600            71     200/  8/  8   N/A           0
CENTRAL LI SOUND 0600            71 72  210/ 12/ 14   N/A           2/ 3
EASTERN LI SOUND 0500            68 67  240/  4/  6   N/A
ROBBINS REEF     0600            70     240/  6/  7   N/A
$$


>>>>>>>>>>>>>>>>>>>>>>>>>>>> KEY <<<<<<<<<<<<<<<<<<<<<<<<<<<
>                                                          <
>     SKY/WX - SKY CONDITION/PRESENT WEATHER               <
>     TMP    - TEMPERATURE IN FAHRENHEIT                   <
>     DP     - DEWPOINT IN FAHRENHEIT                      <
>     RH     - RELATIVE HUMIDITY IN PERCENT                <
>     WIND   - DIRECTION AND SPEED IN MPH                  <
>     PRES   - MEAN SEA LEVEL PRESSURE IN INCHES OF HG     <
>     WCI    - WIND CHILL INDEX                            <
>     VSB    - VISIBILITY IN MILES                         <
>     HX     - HEAT INDEX                                  <
>     TC     - TEMPERATURE IN CELSIUS                      <
>     VRB    - VARIABLE WIND DIRECTION                     <
>                                                          <
>>>>>>>>>>>>>>>>>>>>>>>>>>>> KEY <<<<<<<<<<<<<<<<<<<<<<<<<<<





USA.gov is the U.S. government's official web portal to all federal, state and local government web resources and services.